Regional Weather Roundup
Issued by NWS

Home | Current Version | Previous Version | Text Only | Print | Product List | Glossary Off
Versions: 1 2 3 4 5 6 7 8 9 10 11 12 13 14 15 16 17 18 19 20 21 22 23 24 25 26 27 28 29 30 31 32 33 34 35 36 37 38 39 40 41 42 43 44 45 46 47 48 49 50

000
ASUS43 KDTX 181110
RWRMI
MICHIGAN HOURLY REGIONAL WEATHER ROUNDUP
NATIONAL WEATHER SERVICE DETROIT/PONTIAC MI
700 AM EDT FRI AUG 18 2017

NOTE: "FAIR" INDICATES FEW OR NO CLOUDS BELOW 12,000 FEET WITH NO
SIGNIFICANT WEATHER AND/OR OBSTRUCTION TO VISIBILITY.

MIZ047>049-052>055-059>063-066>070-074>076-081>083-181200-
SOUTHEAST LOWER MICHIGAN

CITY           SKY/WX    TMP DP  RH WIND       PRES   REMARKS
ADRIAN         CLEAR     66  64  93 SW5       29.78R
ALMA           CLOUDY    65  63  92 SW13G21   29.70R
ANN ARBOR      PTCLDY    66  62  87 SW7       29.75R
BAD AXE        DRIZZLE   67  65  91 SW15      29.67R
CARO           CLOUDY    66  63  90 SW12G17   29.68R
DETROIT CITY   CLEAR     69  64  84 SW9       29.73R
DETROIT        PTCLDY    69  65  86 SW10      29.76R
FLINT          CLOUDY    67  63  87 SW8       29.71R
GROSSE ILE     CLEAR     69  65  86 SW6       29.74R
HILLSDALE      MOCLDY    66  63  88 SW8       29.78R
HOWELL         CLOUDY    68  62  82 SW7       29.74R

CITY           SKY/WX    TMP DP  RH WIND       PRES   REMARKS
JACKSON          N/A     67  62  84 SW9       29.76R
LAMBERTVILLE   CLEAR     67  65  91 SW5       29.77R
LANSING        LGT RAIN  67  62  84 W16G22    29.73R
LAPEER         MOCLDY    69  63  82 W10       29.71R
MASON          CLOUDY    70  62  75 SW8G17    29.74R
MONROE         CLEAR     67  65  93 SW6       29.76R
MT. CLEMENS    CLEAR     70  65  85 SW12      29.70S
PONTIAC        MOCLDY    68  63  84 SW9       29.72R
PORT HOPE        N/A     69  65  86 VRB5      29.63R
PORT HURON     CLEAR     70  64  83 SW5       29.70S
TRI CITIES     CLOUDY    67  66  97 SW13      29.68R
MIDLAND        CLOUDY    67  63  85 SW7       29.66R
TROY           CLEAR     70  62  77 SW8       29.75R
SAGINAW HB     CLOUDY    64  63  94 SW9       29.68R
$$
MIZ043>046-050>051-056>058-064>065-071>073-077>080-181200-
SOUTHWEST LOWER MICHIGAN

CITY           SKY/WX    TMP DP  RH WIND       PRES   REMARKS
BATTLE CREEK   CLOUDY    68  64  87 W10G22    29.76R
BENTON HARBOR  MOCLDY    69  61  75 W12       29.77R
BIG RAPIDS     CLOUDY    63  59  86 W9G18     29.68R
COLDWATER      CLEAR     66  66 100 SW7       29.78R
FREMONT        DRIZZLE   63  63 100 W6        29.70S
HOLLAND        CLOUDY    69  61  75 W12G18    29.75R
GRAND RAPIDS   CLOUDY    66  63  90 SW15      29.73R
IONIA          DRIZZLE   65  64  94 W12G20    29.71R
KALAMAZOO      LGT RAIN  68  63  84 W9        29.77R
LUDINGTON      CLOUDY    66  59  78 W8G21     29.68R
MARSHALL       CLOUDY    66  66  98 SW7       29.76R
MOUNT PLEASANT CLOUDY    67  63  85 W12       29.66R
MUSKEGON       LGT RAIN  67  62  84 W13G23    29.72R
SOUTH HAVEN    CLOUDY    70  62  75 W12G17    29.77R
$$
MIZ016>042-181200-
NORTHERN LOWER MICHIGAN

CITY           SKY/WX    TMP DP  RH WIND       PRES   REMARKS
ALPENA         CLOUDY    67  66  97 SW9       29.57S
BEAVER ISLAND  CLOUDY    64  63  96 NW8       29.56R
BELLAIRE       DRIZZLE   64  61  91 W6        29.60R
CADILLAC       DRIZZLE   64  60  90 W9        29.66R
CHARLEVOIX     DRIZZLE   64  64 100 SW10      29.60R
FRANKFORT      CLOUDY    67  64  89 W12G18    29.64R
GAYLORD        LGT RAIN  63  62  97 W13       29.60R FOG
GRAYLING       CLOUDY    64  62  91 W12G22    29.62R FOG
HARBOR SPRINGS DRIZZLE   64  63  95 SW13G23   29.56R
HOUGHTON LAKE  CLOUDY    65  62  90 W16       29.64R
MANISTEE       CLOUDY    66  61  84 W17G23    29.66R
OSCODA         CLOUDY    68  65  93 SW9G17    29.60S
PELLSTON       CLOUDY    67  66  97 W10G17    29.55R
ROGERS CITY    CLOUDY    67  65  94 SW6       29.55S FOG
TRAVERSE CITY  CLOUDY    66  61  84 W9        29.60R
$$
MIZ007>008-015-181200-
EASTERN UPPER MICHIGAN

CITY           SKY/WX    TMP DP  RH WIND       PRES   REMARKS
KINROSS        LGT RAIN  67  67 100 W7        29.50R FOG
MACKINAC ISLAN CLOUDY    67  67 100 W10G17    29.52R FOG
NEWBERRY       CLOUDY    61  60  97 W10       29.54R
S. S. MARIE    LGT RAIN  66  65  96 CALM      29.49R FOG
MUNISING         N/A     61  32  33 NW17G29   29.59R
$$
MIZ004>006-011>014-085-181200-
CENTRAL UPPER MICHIGAN

CITY           SKY/WX    TMP DP  RH WIND       PRES   REMARKS
MANISTIQUE     CLOUDY    61  56  81 NW12G18   29.57R HAZE
ESCANABA       CLOUDY    63  59  88 NW10      29.62R
MENOMINEE      CLOUDY    64  59  83 VRB6      29.66R
SAWYER-GWINN   CLOUDY    59  57  94 NW15G22   29.63R
$$
MIZ001>003-009>011-084-181200-
WESTERN UPPER MICHIGAN

CITY           SKY/WX    TMP DP  RH WIND       PRES   REMARKS
IRON MOUNTAIN  CLOUDY    63  56  78 NW15G23   29.66R
HOUGHTON       CLOUDY    59  56  89 NW17      29.69R
COPPER HARBOR    N/A     56  55  97 N17       29.65R
IRONWOOD       LGT RAIN  59  58  96 NW10      29.79S FOG
$$

ABBREVIATIONS USED IN REMARKS
   TC - TEMPERATURE IN CELSIUS
  WCI - WIND CHILL INDEX
   HX - HEAT INDEX
  VSB - VISIBILITY





USA.gov is the U.S. government's official web portal to all federal, state and local government web resources and services.